Torna al catalogo

SL-8 DEB

AttivoLEO
NORAD 43117·DEBRIS·🇷🇺 Russia

Lanciato Jun 21, 1988 da Plesetsk Cosmodrome

Loading…

Prossimi Passaggi (prossime 24 ore)

TLE

In scadenzaSource: Space-Track

Epoca: Sep 9, 2026, 10:40 UTC

1 43117U 88053E   26252.44463786  .00000089  00000-0  37986-4 0  9993
2 43117  74.0517 148.6134 0021299 279.6971  80.1778 14.38226928455452

Traccia SL-8 DEB in tempo reale con AllMySat

Download on the App Store